COSMOS 1275 DEB

Satellite information

Favourite Embed

Satellite Type and Status

DEBRISIN ORBIT

Key statistics

Satellite COSMOS 1275 DEB at a glance.

Uptime

16104

Days in orbit

Revolutions

≈ 13.9

Per day

Orbit

LEO

Low Earth Orbit

Inclination

82.9

Latest

Satellite identification and parameters

Extended collection of information and parameters for COSMOS 1275 DEB.

Object identification

Identified? True

Debris? True

Object name: COSMOS 1275 DEB

International designator: 1981-053SV

Object number (NORAD): 42181

Object ID (CCSDS): 42181

Country: COMMONWEALTH OF INDEPENDENT STATES (CIS)

Current information (Y/N): Y

RCS size: SMALL

Orbital parameters

Period: 103.354 minutes

Inclination: 82.904 deg

SMA: 7295.312 km

Apoapsis: 969.804 km

Periapsis: 864.549 km

RAAN: 336.6299 deg

Eccentricy: 0.0072139

Argument of periapsis: 19.2613 deg

Mean anomaly: 341.1254 deg

Mean motion: 13.93275481 rev/day

Mean motion (dot): 0.00001449 rev/day2

B* drag term: 0.0010749 1/REarth

Two-line elements (TLE)

Creation date: July 6, 2025, 10:26 p.m.

Reference frame: TEME

Reference center: EARTH

Epoch: July 6, 2025, 8:31 p.m. UTC

TLE line 0: 0 COSMOS 1275 DEB

TLE line 1: 1 42181U 81053SV 25187.85550402 .00001449 00000-0 10749-2 0 9996

TLE line 2: 2 42181 82.9040 336.6299 0072139 19.2613 341.1254 13.93275481 30830

Live tracking on map

Real-time ground track for satellite COSMOS 1275 DEB.

In-orbit conjunctions

A list of the most updated potential collisions computed for object COSMOS 1275 DEB.

Target Orbit TCA Probability of collision Miss distance Type
CZ-6A DEB SSO 2025-05-29 22:52:00 0.0001481843 184.0 (m) DEBRIS
FENGYUN 1C DEB SSO 2024-11-11 15:55:13 0.0002945181 268.0 (m) DEBRIS

Associated space launch

Navigation satellite providing location information for the Tsiklon-B navigation system

COSMOS 1275 DEB was lifted into orbit during the mission ‘Kosmos-3M | Parus 27’, on board a Kosmos-3M space rocket.

The launch took place on June 4, 1981, 3:41 p.m. from 132/2.

For more information about the launch, click the button.

Launch to space Kosmos-3M | Parus 27
Kosmos-3M | Parus 27

Agency: N/A

Status: Launch Successful

Launch date: June 4, 1981, 3:41 p.m. UTC

Rocket: Kosmos-3M

Launch pad: 132/2

Location: Plesetsk Cosmodrome, Russian Federation

...

Latest news about this satellite

There are no fresh news available about this satellite. Check back as we update our databases every day.


Newsletter sign-up

Weekly statistics, charts and insights to help you stay on top of the space industry.